# Total inorganic carbon (TCO2) in a unit kg  of seawater measured onboard R/V Kaiyo (NODC Code: unknown) of the Japan Marine Science and Technology Center (JAMSTEC).,,,,,,,,,,,,,,,,,
# Cruise = KY95-11,,,,,,,,,,,,,,,,,
"# Measured by Meteorological Research Institute using coulometric technique (Ishii, et al., 1998). ",,,,,,,,,,,,,,,,,
"# Batches of Certified Reference Material for TCO2 analysis provided by Dr A. G. Dickson have been used for quality control. Significant offset, if any, has been corrected for.",,,,,,,,,,,,,,,,,
"# Total alkalinity (TA) has been calculated from TCO2, SST, salinity and pCO2 that have been concurrently measured using carbonic acid dissociation constants given by Roy et al., 1993.",,,,,,,,,,,,,,,,,
# Date and Time = UTC,,,,,,,,,,,,,,,,,
"# Quality flag (F); good=2, questionable=3, bad =4, not reported = 5, no data =9",,,,,,,,,,,,,,,,,
#,,,,,,,,,,,,,,,,,
Ship,Cruise,No.,Date,,,Time,,Latitude,Longitude,TCO2,F,TA_calcd,F,SST,F,SSS,F
,,,year,month,day,hour,min,deg,deg,umol/kg,,umol/kg,,degC,,,
Kaiyo,9511,25,1995,12,24,6,0,7.986,146.367,1852.4,4,-9.9,9,28.7,2,33.692,2
Kaiyo,9511,26,1995,12,24,7,0,7.8,146.436,1858.5,4,-9.9,9,28.77,2,33.754,2
Kaiyo,9511,27,1995,12,24,8,0,7.623,146.5,1866.4,4,-9.9,9,28.86,2,33.858,2
Kaiyo,9511,28,1995,12,24,9,0,7.448,146.563,1854.3,4,-9.9,9,28.88,2,33.835,2
Kaiyo,9511,29,1995,12,24,10,0,7.258,146.597,-999.9,9,-9.9,9,29,2,33.83,2
Kaiyo,9511,30,1995,12,24,11,0,7.07,146.626,-999.9,9,-9.9,9,28.98,2,33.933,2
Kaiyo,9511,31,1995,12,24,12,0,6.885,146.643,1867.5,3,-9.9,9,28.86,2,33.932,2
Kaiyo,9511,32,1995,12,24,13,0,6.702,146.665,1875.7,3,-9.9,9,28.9,2,33.971,2
Kaiyo,9511,33,1995,12,24,14,0,6.513,146.682,1883.4,4,-9.9,9,28.98,2,34.06,2
Kaiyo,9511,34,1995,12,24,15,0,6.328,146.7,1888.5,2,-9.9,9,29.01,2,34.051,2
Kaiyo,9511,35,1995,12,24,16,0,6.141,146.722,1885.6,3,-9.9,9,29.12,2,34.048,2
Kaiyo,9511,36,1995,12,24,17,0,5.954,146.75,1870.5,4,-9.9,9,29.19,2,34.129,2
Kaiyo,9511,37,1995,12,24,18,0,5.77,146.771,1882,4,-9.9,9,29.19,2,34.109,2
Kaiyo,9511,38,1995,12,24,19,0,5.583,146.795,1900,2,-9.9,9,29.28,2,34.143,2
Kaiyo,9511,39,1995,12,24,20,0,5.398,146.819,1900.5,2,-9.9,9,29.34,2,34.242,2
Kaiyo,9511,40,1995,12,24,21,0,5.206,146.842,1906.6,2,-9.9,9,29.37,2,34.213,2
Kaiyo,9511,41,1995,12,24,22,0,5.018,146.868,1894.9,2,-9.9,9,29.43,2,34.2,2
Kaiyo,9511,42,1995,12,24,23,0,4.835,146.892,1889.1,2,-9.9,9,29.55,2,34.147,2
Kaiyo,9511,43,1995,12,25,0,0,4.65,146.913,1874.4,4,-9.9,9,29.6,2,34.119,2
Kaiyo,9511,44,1995,12,25,1,0,4.463,146.932,1887.4,2,-9.9,9,29.74,2,34.127,2
Kaiyo,9511,45,1995,12,25,2,0,4.279,146.96,1898.3,2,-9.9,9,29.82,2,34.171,2
Kaiyo,9511,46,1995,12,25,3,0,4.096,146.983,1884.1,2,-9.9,9,29.84,2,34.141,2
Kaiyo,9511,47,1995,12,25,4,0,4,147.002,-999.9,9,-9.9,9,29.97,2,34.113,2
Kaiyo,9511,48,1995,12,25,5,0,4.004,147.005,-999.9,9,-9.9,9,29.95,2,34.089,2
Kaiyo,9511,49,1995,12,25,6,0,3.996,147.012,-999.9,9,-9.9,9,29.96,2,34.092,2
Kaiyo,9511,50,1995,12,25,7,0,3.855,147.006,1884.9,4,-9.9,9,29.94,2,34.096,2
Kaiyo,9511,51,1995,12,25,8,0,3.658,146.993,1884.6,3,-9.9,9,29.82,2,34.079,2
Kaiyo,9511,52,1995,12,25,9,0,3.466,146.991,1879,2,-9.9,9,29.52,2,33.952,2
Kaiyo,9511,53,1995,12,25,10,0,3.271,146.997,1876.6,4,-9.9,9,29.61,2,33.939,2
Kaiyo,9511,54,1995,12,25,11,0,3.076,147.001,-999.9,9,-9.9,9,29.48,2,33.962,2
Kaiyo,9511,55,1995,12,25,12,0,2.877,146.996,-999.9,9,-9.9,9,29.63,2,33.872,2
Kaiyo,9511,56,1995,12,25,13,0,2.51,146.996,1875.8,2,-9.9,9,29.55,2,33.788,2
Kaiyo,9511,57,1995,12,25,14,0,2.474,146.996,1874.7,2,-9.9,9,29.44,2,33.835,2
Kaiyo,9511,58,1995,12,25,15,0,2.268,146.996,1835.9,4,-9.9,9,29.48,2,33.798,2
Kaiyo,9511,59,1995,12,25,16,0,2.071,146.996,1867.4,2,-9.9,9,29.52,2,33.865,2
Kaiyo,9511,60,1995,12,25,17,0,1.866,146.996,1870,3,-9.9,9,29.56,2,33.862,2
Kaiyo,9511,61,1995,12,25,18,0,1.665,146.998,1865.3,3,-9.9,9,29.45,2,33.851,2
Kaiyo,9511,62,1995,12,25,19,0,1.462,147.001,1874,2,-9.9,9,29.66,2,33.792,2
Kaiyo,9511,63,1995,12,25,20,0,1.255,146.999,1874.1,3,-9.9,9,29.65,2,33.799,2
Kaiyo,9511,64,1995,12,25,21,0,1.042,147.002,1873.6,4,-9.9,9,29.8,2,33.946,2
Kaiyo,9511,65,1995,12,25,22,0,0.836,147.002,1880.4,3,-9.9,9,29.8,2,34.072,2
Kaiyo,9511,66,1995,12,25,23,0,0.618,146.997,1903.4,2,-9.9,9,29.85,2,34.191,2
Kaiyo,9511,67,1995,12,26,0,0,0.402,147.001,1892.5,4,-9.9,9,29.7,2,34.276,2
Kaiyo,9511,68,1995,12,26,1,0,0.182,147.007,1890.4,4,-9.9,9,29.68,2,34.225,2
Kaiyo,9511,69,1995,12,26,2,0,-0.001,147.001,1907.7,2,-9.9,9,29.58,2,34.325,2
Kaiyo,9511,70,1995,12,26,3,0,-0.007,147.01,-999.9,9,-9.9,9,29.54,2,34.311,2
Kaiyo,9511,71,1995,12,26,4,0,-0.002,147.029,-999.9,9,-9.9,9,29.55,2,34.305,2
Kaiyo,9511,72,1995,12,26,5,0,-0.005,147.197,1896.6,4,-9.9,9,29.67,2,34.325,2
Kaiyo,9511,73,1995,12,26,6,0,-0.001,147.416,-999.9,3,-9.9,9,-9.99,2,-9.999,2
Kaiyo,9511,74,1995,12,26,7,0,0,147.637,1900.2,3,-9.9,9,29.79,2,34.356,2
Kaiyo,9511,75,1995,12,26,8,0,0.001,147.853,1907.3,2,-9.9,9,29.74,2,34.41,2
Kaiyo,9511,76,1995,12,26,9,0,0,148.071,1911.3,2,-9.9,9,29.7,2,34.397,2
Kaiyo,9511,77,1995,12,26,10,0,0,148.285,1897.3,3,-9.9,9,29.66,2,34.341,2
Kaiyo,9511,78,1995,12,26,11,0,-0.002,148.499,-999.9,9,-9.9,9,29.67,2,34.348,2
Kaiyo,9511,79,1995,12,26,12,0,-0.001,148.721,1896.6,4,-9.9,9,29.62,2,34.304,2
Kaiyo,9511,80,1995,12,26,13,0,0,148.933,1897.7,3,-9.9,9,29.56,2,34.31,2
Kaiyo,9511,81,1995,12,26,14,0,-0.001,149.152,1903.6,2,-9.9,9,29.57,2,34.287,2
Kaiyo,9511,82,1995,12,26,15,0,0.001,149.369,1896.2,2,-9.9,9,29.56,2,34.21,2
Kaiyo,9511,83,1995,12,26,16,0,0.002,149.591,1900.2,2,-9.9,9,29.64,2,34.331,2
Kaiyo,9511,84,1995,12,26,17,0,-0.002,149.814,1898.5,2,-9.9,9,29.69,2,34.33,2
Kaiyo,9511,85,1995,12,26,18,0,-0.005,150.034,1900.6,2,-9.9,9,29.7,2,34.278,2
Kaiyo,9511,86,1995,12,26,19,0,0,150.258,1902.8,3,-9.9,9,29.74,2,34.293,2
Kaiyo,9511,87,1995,12,26,20,0,-0.001,150.474,1898.6,2,-9.9,9,29.76,2,34.281,2
Kaiyo,9511,88,1995,12,26,21,0,0,150.701,1894.1,2,-9.9,9,29.77,2,34.278,2
Kaiyo,9511,89,1995,12,26,22,0,0,150.921,1893.5,2,-9.9,9,29.78,2,34.17,2
Kaiyo,9511,90,1995,12,26,23,0,0.005,151.013,1892.3,2,-9.9,9,29.69,2,34.199,2
Kaiyo,9511,91,1995,12,27,0,0,0.002,151.002,-999.9,9,-9.9,9,29.75,2,34.2,2
Kaiyo,9511,92,1995,12,27,1,0,0.022,151.014,-999.9,9,-9.9,9,29.83,2,34.209,2
Kaiyo,9511,93,1995,12,27,2,0,0.018,151.035,1890.6,4,-9.9,9,29.79,2,34.224,2
Kaiyo,9511,94,1995,12,27,3,0,-0.001,151.161,1892.5,3,-9.9,9,29.78,2,34.214,2
Kaiyo,9511,95,1995,12,27,4,0,-0.001,151.357,1898.2,3,-9.9,9,29.69,2,34.241,2
Kaiyo,9511,96,1995,12,27,5,0,0.002,151.557,1901.3,2,-9.9,9,29.71,2,34.309,2
Kaiyo,9511,97,1995,12,27,6,0,0,151.754,1892.7,4,-9.9,9,29.58,2,34.302,2
Kaiyo,9511,98,1995,12,27,7,0,-0.001,151.954,1883.4,4,-9.9,9,29.56,2,34.252,2
Kaiyo,9511,99,1995,12,27,8,0,-0.001,152.154,1887,3,-9.9,9,29.56,2,34.223,2
Kaiyo,9511,100,1995,12,27,9,0,0.001,152.357,1892.6,4,-9.9,9,29.6,2,34.334,2
Kaiyo,9511,101,1995,12,27,10,0,0.003,152.557,-999.9,9,-9.9,9,29.7,2,34.357,2
Kaiyo,9511,102,1995,12,27,11,0,0.007,152.761,1906,2,-9.9,9,29.75,2,34.362,2
Kaiyo,9511,103,1995,12,27,12,0,0.005,152.963,1903.6,2,-9.9,9,29.8,2,34.394,2
Kaiyo,9511,104,1995,12,27,13,0,0.001,153.16,1889.1,3,-9.9,9,29.7,2,34.298,2
Kaiyo,9511,105,1995,12,27,14,0,-0.002,153.362,1889.6,4,-9.9,9,29.66,2,34.257,2
Kaiyo,9511,106,1995,12,27,15,0,-0.003,153.559,1896.7,2,-9.9,9,29.73,2,34.329,2
Kaiyo,9511,107,1995,12,27,16,0,-0.004,153.761,1901.7,2,-9.9,9,29.74,2,34.313,2
Kaiyo,9511,108,1995,12,27,17,0,-0.002,153.96,1899.8,3,-9.9,9,29.77,2,34.389,2
Kaiyo,9511,109,1995,12,27,18,0,0,154.161,1893.3,3,-9.9,9,29.68,2,34.322,2
Kaiyo,9511,110,1995,12,27,19,0,-0.001,154.347,1902.2,3,-9.9,9,29.75,2,34.386,2
Kaiyo,9511,111,1995,12,27,20,0,0.001,154.537,1903.1,2,-9.9,9,29.79,2,34.408,2
Kaiyo,9511,112,1995,12,27,21,0,0.001,154.726,1909,2,-9.9,9,29.82,2,34.408,2
Kaiyo,9511,113,1995,12,27,22,0,0.004,154.883,1908.6,2,-9.9,9,29.89,2,34.468,2
Kaiyo,9511,114,1995,12,27,23,0,0,155.004,1899.2,4,-9.9,9,29.93,2,34.475,2
Kaiyo,9511,115,1995,12,28,0,0,0.003,154.998,-999.9,9,-9.9,9,29.98,2,34.467,2
Kaiyo,9511,116,1995,12,28,1,0,0.016,155.001,-999.9,9,-9.9,9,30.08,2,34.476,2
Kaiyo,9511,117,1995,12,28,2,0,0.031,155.017,1902.1,4,-9.9,9,30.15,2,34.474,2
Kaiyo,9511,118,1995,12,28,3,0,0.014,155.231,1900,3,-9.9,9,30.05,2,34.443,2
Kaiyo,9511,119,1995,12,28,4,0,0.004,155.456,1898.1,3,-9.9,9,29.98,2,34.355,2
Kaiyo,9511,120,1995,12,28,5,0,0.003,155.681,1905.5,3,-9.9,9,30.08,2,34.41,2
Kaiyo,9511,121,1995,12,28,6,0,-0.002,155.909,1903.7,3,-9.9,9,30,2,34.436,2
Kaiyo,9511,122,1995,12,28,7,0,-0.001,156.101,1905.4,3,-9.9,9,30.08,2,34.459,2
Kaiyo,9511,123,1995,12,28,8,0,-0.004,156.185,1899.9,3,-9.9,9,30.06,2,34.47,2
Kaiyo,9511,124,1995,12,28,9,0,0.003,156.403,1898.8,4,-9.9,9,30.04,2,34.444,2
Kaiyo,9511,125,1995,12,28,10,0,0,156.628,1903.7,2,-9.9,9,30.03,2,34.423,2
Kaiyo,9511,126,1995,12,28,11,0,-0.002,156.848,-999.9,9,-9.9,9,30.03,2,34.464,2
Kaiyo,9511,127,1995,12,28,12,0,-0.004,157.065,1891.7,4,-9.9,9,30,2,34.479,2
Kaiyo,9511,128,1995,12,28,13,0,-0.005,157.284,1906.1,3,-9.9,9,29.92,2,34.476,2
Kaiyo,9511,129,1995,12,28,14,0,-0.002,157.497,1911.5,4,-9.9,9,29.94,2,34.528,2
Kaiyo,9511,130,1995,12,28,15,0,-0.005,157.712,1916.5,2,-9.9,9,29.89,2,34.574,2
Kaiyo,9511,131,1995,12,28,16,0,-0.004,157.931,1914.6,2,-9.9,9,29.92,2,34.579,2
Kaiyo,9511,132,1995,12,28,17,0,-0.004,158.147,1921.3,2,-9.9,9,29.97,2,34.559,2
Kaiyo,9511,133,1995,12,28,18,0,-0.002,158.346,1917.9,3,-9.9,9,29.98,2,34.559,2
Kaiyo,9511,134,1995,12,28,19,0,-0.005,158.513,1911.2,4,-9.9,9,30,2,34.549,2
Kaiyo,9511,135,1995,12,28,20,0,-0.007,158.67,1914.5,4,-9.9,9,29.99,2,34.573,2
Kaiyo,9511,136,1995,12,28,21,0,-0.005,158.827,1903.7,4,-9.9,9,30,2,34.573,2
Kaiyo,9511,137,1995,12,28,22,0,0,159,1920.7,2,-9.9,9,30.03,2,34.574,2
Kaiyo,9511,138,1995,12,28,23,0,0.003,158.999,-999.9,9,-9.9,9,30.08,2,34.533,2
Kaiyo,9511,139,1995,12,29,0,0,0.008,159.007,-999.9,9,-9.9,9,30.11,2,34.538,2
Kaiyo,9511,140,1995,12,29,1,0,0,159.095,-999.9,9,-9.9,9,30.1,2,34.544,2
Kaiyo,9511,141,1995,12,29,2,0,-0.007,159.302,1915.2,4,-9.9,9,30.13,2,34.532,2
Kaiyo,9511,142,1995,12,29,3,0,-0.008,159.523,1918,2,-9.9,9,30.2,2,34.533,2
Kaiyo,9511,143,1995,12,29,4,0,-0.001,159.75,1917.2,3,-9.9,9,30.26,2,34.548,2
Kaiyo,9511,144,1995,12,29,5,0,-0.003,159.981,-999.9,3,-9.9,9,-9.99,2,-9.999,2
Kaiyo,9511,145,1995,12,29,6,0,-0.004,160.209,1917.7,3,-9.9,9,30.42,2,34.56,2
Kaiyo,9511,146,1995,12,29,7,0,-0.006,160.439,1916.2,2,-9.9,9,30.29,2,34.546,2
Kaiyo,9511,147,1995,12,29,8,0,-0.008,160.67,1919.3,3,-9.9,9,30.1,2,34.561,2
Kaiyo,9511,148,1995,12,29,9,0,-0.002,160.881,-999.9,9,-9.9,9,30.09,2,34.609,2
Kaiyo,9511,149,1995,12,29,10,0,0.005,161.083,1913.1,4,-9.9,9,30.17,2,34.602,2
Kaiyo,9511,150,1995,12,29,11,0,-0.002,161.277,1917.6,3,-9.9,9,30.11,2,34.59,2
Kaiyo,9511,151,1995,12,29,12,0,-0.005,161.455,1912.9,4,-9.9,9,30.12,2,34.616,2
Kaiyo,9511,152,1995,12,29,13,0,-0.005,161.598,1924.7,2,-9.9,9,30.15,2,34.634,2
Kaiyo,9511,153,1995,12,29,14,0,-0.001,161.789,1916.6,4,-9.9,9,30.09,2,34.611,2
Kaiyo,9511,154,1995,12,29,15,0,-0.001,161.979,1921.1,3,-9.9,9,30.04,2,34.544,2
Kaiyo,9511,155,1995,12,29,16,0,-0.005,162.013,1920.2,3,-9.9,9,30.07,2,34.583,2
Kaiyo,9511,156,1995,12,29,17,0,-0.001,162.001,1915,4,-9.9,9,30.05,2,34.589,2
Kaiyo,9511,157,1995,12,29,18,0,0,162.001,1923.9,2,-9.9,9,29.98,2,34.579,2
Kaiyo,9511,158,1995,12,29,19,0,-0.001,161.999,1908,4,-9.9,9,29.98,2,34.576,2
Kaiyo,9511,159,1995,12,29,20,0,-0.002,162,1909.7,4,-9.9,9,29.97,2,34.544,2
Kaiyo,9511,160,1995,12,29,21,0,-0.007,162.001,1922.6,3,-9.9,9,30.04,2,34.544,2
Kaiyo,9511,161,1995,12,29,22,0,-0.013,162.001,1920.6,4,-9.9,9,30.16,2,34.544,2
Kaiyo,9511,162,1995,12,29,23,0,-0.018,162.003,-999.9,9,-9.9,9,30.1,2,34.536,2
Kaiyo,9511,163,1995,12,30,0,0,-0.024,162,-999.9,9,-9.9,9,30.13,2,34.547,2
Kaiyo,9511,164,1995,12,30,1,0,-0.031,161.995,1911.2,4,-9.9,9,30.18,2,34.547,2
Kaiyo,9511,165,1995,12,30,2,0,-0.038,161.99,1913.2,4,-9.9,9,30.29,2,34.55,2
Kaiyo,9511,166,1995,12,30,3,0,-0.047,161.987,1914,4,-9.9,9,30.34,2,34.552,2
Kaiyo,9511,167,1995,12,30,4,0,-0.052,161.982,1916.2,2,-9.9,9,30.41,2,34.56,2
Kaiyo,9511,168,1995,12,30,5,0,-0.059,161.98,1923.1,3,-9.9,9,30.43,2,34.568,2
Kaiyo,9511,169,1995,12,30,6,0,-0.066,161.978,1924.4,2,-9.9,9,30.5,2,34.589,2
Kaiyo,9511,170,1995,12,30,7,0,-0.072,161.979,1918.4,2,-9.9,9,30.37,2,34.607,2
Kaiyo,9511,171,1995,12,30,8,0,-0.022,161.998,1917.8,2,-9.9,9,30.31,2,34.603,2
Kaiyo,9511,172,1995,12,30,9,0,-0.001,161.998,-999.9,9,-9.9,9,30.28,2,34.602,2
Kaiyo,9511,173,1995,12,30,10,0,-0.008,161.996,-999.9,9,-9.9,9,30.21,2,34.614,2
Kaiyo,9511,174,1995,12,30,11,0,-0.011,161.999,1920,4,-9.9,9,30.25,2,34.618,2
Kaiyo,9511,175,1995,12,30,12,0,-0.01,162.004,1916.8,4,-9.9,9,30.22,2,34.614,2
Kaiyo,9511,176,1995,12,30,13,0,0.004,161.998,-999.9,9,-9.9,9,30.11,2,34.606,2
Kaiyo,9511,177,1995,12,30,14,0,-0.003,161.999,1922.2,2,-9.9,9,30.08,2,34.598,2
Kaiyo,9511,178,1995,12,30,15,0,-0.004,162,1916.3,4,-9.9,9,30.08,2,34.593,2
Kaiyo,9511,179,1995,12,30,16,0,-0.005,161.997,1912,4,-9.9,9,30.04,2,34.592,2
Kaiyo,9511,180,1995,12,30,17,0,-0.003,162.007,1923.7,2,-9.9,9,30.11,2,34.607,2
Kaiyo,9511,181,1995,12,30,18,0,-0.001,162.003,1928.8,2,-9.9,9,30.08,2,34.608,2
Kaiyo,9511,182,1995,12,30,19,0,0.001,162.003,1919.2,3,-9.9,9,30.06,2,34.616,2
Kaiyo,9511,183,1995,12,30,20,0,0.067,162.106,1925.5,2,-9.9,9,30.06,2,34.612,2
Kaiyo,9511,184,1995,12,30,21,0,0.169,162.244,1918,2,-9.9,9,30.02,2,34.574,2
Kaiyo,9511,185,1995,12,30,22,0,0.28,162.385,-999.9,9,-9.9,9,30.06,2,34.658,2
Kaiyo,9511,186,1995,12,30,23,0,0.387,162.524,1938.4,2,-9.9,9,30.04,2,34.79,2
Kaiyo,9511,187,1995,12,31,0,0,0.487,162.663,-999.9,9,-9.9,9,30.09,2,34.831,2
Kaiyo,9511,188,1995,12,31,1,0,0.599,162.8,-999.9,9,-9.9,9,30.16,2,34.847,2
Kaiyo,9511,189,1995,12,31,2,0,0.699,162.919,-999.9,9,-9.9,9,30.27,2,34.939,2
Kaiyo,9511,190,1995,12,31,3,0,0.792,163.045,1946.1,3,-9.9,9,30.26,2,34.957,2
Kaiyo,9511,191,1995,12,31,4,0,0.89,163.18,1946.7,3,-9.9,9,30.4,2,34.963,2
Kaiyo,9511,192,1995,12,31,5,0,0.989,163.318,1947.6,3,-9.9,9,30.3,2,35.096,2
Kaiyo,9511,193,1995,12,31,6,0,1.086,163.448,1952.8,3,-9.9,9,30.28,2,35.091,2
Kaiyo,9511,194,1995,12,31,7,0,1.182,163.577,1954.1,2,-9.9,9,30.19,2,35.111,2
Kaiyo,9511,195,1995,12,31,8,0,1.273,163.706,-999.9,9,-9.9,9,30.06,2,35.124,2
Kaiyo,9511,196,1995,12,31,9,0,1.366,163.839,1955.4,3,-9.9,9,29.97,2,35.138,2
Kaiyo,9511,197,1995,12,31,10,0,1.457,163.973,1954.3,3,-9.9,9,29.9,2,35.118,2
Kaiyo,9511,198,1995,12,31,11,0,1.56,164.097,1957.3,3,-9.9,9,29.88,2,35.111,2
Kaiyo,9511,199,1995,12,31,12,0,1.656,164.227,1950.6,2,-9.9,9,29.8,2,35.084,2
Kaiyo,9511,200,1995,12,31,13,0,1.751,164.359,1952.5,2,-9.9,9,29.65,2,35.021,2
Kaiyo,9511,201,1995,12,31,14,0,1.847,164.494,1949.9,2,-9.9,9,29.61,2,34.992,2
Kaiyo,9511,202,1995,12,31,15,0,1.944,164.628,1944.9,2,-9.9,9,29.48,2,34.896,2
Kaiyo,9511,203,1995,12,31,16,0,2.044,164.76,1945.4,2,-9.9,9,29.45,2,34.88,2
Kaiyo,9511,204,1995,12,31,17,0,2.143,164.891,1940.7,3,-9.9,9,29.4,2,34.853,2
Kaiyo,9511,205,1995,12,31,18,0,2.243,165.026,1939.4,2,-9.9,9,29.27,2,34.76,2
Kaiyo,9511,206,1995,12,31,19,0,2.344,165.155,1932.8,3,-9.9,9,29.2,2,34.695,2
Kaiyo,9511,207,1995,12,31,20,0,2.446,165.283,1929.4,3,-9.9,9,29.2,2,34.654,2
Kaiyo,9511,208,1995,12,31,21,0,2.544,165.415,1923.3,2,-9.9,9,29.25,2,34.576,2
Kaiyo,9511,209,1995,12,31,22,0,2.64,165.544,1922.4,2,-9.9,9,29.23,2,34.525,2
Kaiyo,9511,210,1995,12,31,23,0,2.737,165.676,1923.7,2,-9.9,9,29.14,2,34.537,2
Kaiyo,9511,211,1996,1,1,0,0,2.834,165.808,1916.1,3,-9.9,9,29.12,2,34.525,2
Kaiyo,9511,212,1996,1,1,1,0,2.935,165.94,1919.4,3,-9.9,9,29.2,2,34.489,2
Kaiyo,9511,213,1996,1,1,2,0,3.036,166.068,1913.6,4,-9.9,9,29.17,2,34.395,2
Kaiyo,9511,214,1996,1,1,3,0,3.14,166.205,1908.4,3,-9.9,9,29.17,2,34.433,2
Kaiyo,9511,215,1996,1,1,4,0,3.245,166.346,-999.9,9,-9.9,9,29.17,2,34.363,2
Kaiyo,9511,216,1996,1,1,5,0,3.347,166.49,-999.9,9,-9.9,9,29.19,2,34.318,2
Kaiyo,9511,217,1996,1,1,6,0,3.452,166.637,-999.9,9,-9.9,9,29.29,2,34.401,2
Kaiyo,9511,218,1996,1,1,7,0,3.557,166.781,1916.9,2,-9.9,9,29.22,2,34.23,2
Kaiyo,9511,219,1996,1,1,8,0,3.664,166.921,1919.7,2,-9.9,9,29.22,2,34.429,2
Kaiyo,9511,220,1996,1,1,9,0,3.771,167.055,1934.1,3,-9.9,9,29.12,2,34.576,2
Kaiyo,9511,221,1996,1,1,10,0,3.874,167.188,-999.9,9,-9.9,9,29.1,2,34.73,2
Kaiyo,9511,222,1996,1,1,11,0,3.964,167.326,1945.3,3,-9.9,9,29.03,2,34.828,2
Kaiyo,9511,223,1996,1,1,12,0,4.062,167.461,1945,2,-9.9,9,29.02,2,34.83,2
Kaiyo,9511,224,1996,1,1,13,0,4.16,167.596,1945.2,2,-9.9,9,29.01,2,34.817,2
Kaiyo,9511,225,1996,1,1,14,0,4.262,167.735,1937.5,2,-9.9,9,28.99,2,34.749,2
Kaiyo,9511,226,1996,1,1,15,0,4.365,167.872,1939,2,-9.9,9,28.98,2,34.724,2
Kaiyo,9511,227,1996,1,1,16,0,4.473,168.008,1934.4,2,-9.9,9,28.94,2,34.667,2
Kaiyo,9511,228,1996,1,1,17,0,4.576,168.145,1936,2,-9.9,9,28.88,2,34.695,2
Kaiyo,9511,229,1996,1,1,18,0,4.677,168.278,1933.8,2,-9.9,9,28.87,2,34.654,2
Kaiyo,9511,230,1996,1,1,19,0,4.778,168.415,1930.7,2,-9.9,9,28.85,2,34.6,2
Kaiyo,9511,231,1996,1,1,20,0,4.87,168.554,1941.1,2,-9.9,9,28.78,2,34.602,2
Kaiyo,9511,232,1996,1,1,21,0,4.958,168.698,1938.6,2,-9.9,9,28.84,2,34.726,2
Kaiyo,9511,233,1996,1,1,22,0,5.041,168.831,1932.3,2,-9.9,9,28.77,2,34.601,2
Kaiyo,9511,234,1996,1,1,23,0,5.113,168.958,-999.9,9,-9.9,9,28.91,2,34.531,2
Kaiyo,9511,235,1996,1,2,0,0,5.184,169.091,-999.9,9,-9.9,9,28.89,2,34.536,2
Kaiyo,9511,236,1996,1,2,1,0,5.254,169.22,-999.9,9,-9.9,9,28.9,2,34.51,2
Kaiyo,9511,237,1996,1,2,2,0,5.33,169.345,1912.5,3,-9.9,9,28.91,2,34.415,2
Kaiyo,9511,238,1996,1,2,3,0,5.408,169.473,1893.6,2,-9.9,9,28.96,2,34.22,2
Kaiyo,9511,239,1996,1,2,4,0,5.482,169.603,1893.7,2,-9.9,9,28.88,2,34.092,2
Kaiyo,9511,240,1996,1,2,5,0,5.555,169.732,1896.8,2,-9.9,9,28.95,2,34.097,2
Kaiyo,9511,241,1996,1,2,6,0,5.669,169.83,1898.8,2,-9.9,9,28.83,2,34.149,2
Kaiyo,9511,242,1996,1,2,7,0,5.785,169.918,1901.5,2,-9.9,9,28.72,2,34.158,2
Kaiyo,9511,243,1996,1,2,8,0,5.888,170.007,-999.9,9,-9.9,9,28.67,2,34.083,2
Kaiyo,9511,244,1996,1,2,9,0,5.986,170.082,1896.9,3,-9.9,9,28.86,2,34.173,2
Kaiyo,9511,245,1996,1,2,10,0,6.086,170.156,1891,2,-9.9,9,28.89,2,34.122,2
Kaiyo,9511,246,1996,1,2,11,0,6.182,170.228,1889.3,3,-9.9,9,28.99,2,34.104,2
Kaiyo,9511,247,1996,1,2,12,0,6.277,170.3,1892.4,2,-9.9,9,29,2,34.092,2
Kaiyo,9511,248,1996,1,2,13,0,6.372,170.371,1889.1,3,-9.9,9,28.97,2,34.084,2
Kaiyo,9511,249,1996,1,2,14,0,6.479,170.454,1892.5,2,-9.9,9,28.8,2,34.067,2
Kaiyo,9511,250,1996,1,2,15,0,6.594,170.543,1779.2,4,-9.9,9,28.87,2,34.059,2
Kaiyo,9511,251,1996,1,2,16,0,6.711,170.636,1894.6,2,-9.9,9,28.92,2,34.038,2
Kaiyo,9511,252,1996,1,2,17,0,6.83,170.728,1894.6,2,-9.9,9,28.94,2,34.043,2
Kaiyo,9511,253,1996,1,2,18,0,6.942,170.808,-999.9,9,-9.9,9,28.88,2,34.177,2
Kaiyo,9511,254,1996,1,6,1,0,6.664,171.461,1899.9,3,-9.9,9,29,2,34.049,2
Kaiyo,9511,255,1996,1,6,2,0,6.457,171.462,-999.9,9,-9.9,9,28.98,2,34.084,2
Kaiyo,9511,256,1996,1,6,3,0,6.236,171.463,1909.2,3,-9.9,9,29.12,2,34.185,2
Kaiyo,9511,257,1996,1,6,4,0,6.019,171.462,1911.1,3,-9.9,9,28.98,2,34.236,2
Kaiyo,9511,258,1996,1,6,5,0,5.811,171.519,1905.4,2,-9.9,9,28.98,2,34.164,2
Kaiyo,9511,259,1996,1,6,6,0,5.609,171.587,1898.3,3,-9.9,9,28.87,2,34.112,2
Kaiyo,9511,260,1996,1,6,7,0,5.412,171.67,1903.3,2,-9.9,9,28.83,2,34.141,2
Kaiyo,9511,261,1996,1,6,8,0,5.253,171.816,1904.8,2,-9.9,9,28.96,2,34.214,2
Kaiyo,9511,262,1996,1,6,9,0,5.087,171.953,1917.9,3,-9.9,9,28.92,2,34.263,2
Kaiyo,9511,263,1996,1,6,10,0,4.918,172.088,1951.5,3,-9.9,9,28.97,2,34.694,2
Kaiyo,9511,264,1996,1,6,11,0,4.755,172.218,1960.8,2,-9.9,9,28.92,2,34.908,2
Kaiyo,9511,265,1996,1,6,12,0,4.591,172.346,1962.8,2,-9.9,9,28.79,2,34.933,2
Kaiyo,9511,266,1996,1,6,13,0,4.429,172.477,1958.6,2,-9.9,9,28.78,2,34.936,2
Kaiyo,9511,267,1996,1,6,14,0,4.263,172.602,1955.2,3,-9.9,9,28.77,2,34.911,2
Kaiyo,9511,268,1996,1,6,15,0,4.094,172.712,1963.1,2,-9.9,9,28.78,2,34.962,2
Kaiyo,9511,269,1996,1,6,16,0,3.933,172.838,1966.5,2,-9.9,9,28.72,2,34.978,2
Kaiyo,9511,270,1996,1,6,17,0,3.778,172.97,1962.7,3,-9.9,9,28.66,2,34.997,2
Kaiyo,9511,271,1996,1,6,18,0,3.625,173.1,1958.6,3,-9.9,9,28.58,2,34.944,2
Kaiyo,9511,272,1996,1,6,19,0,3.468,173.226,1968.3,2,-9.9,9,28.59,2,34.984,2
Kaiyo,9511,273,1996,1,6,20,0,3.307,173.345,1968.7,2,-9.9,9,28.58,2,35.006,2
Kaiyo,9511,274,1996,1,6,21,0,3.175,173.444,1968.2,2,-9.9,9,28.63,2,35.004,2
Kaiyo,9511,275,1996,1,6,22,0,3.049,173.546,-999.9,9,-9.9,9,28.58,2,35.027,2
Kaiyo,9511,276,1996,1,6,23,0,2.918,173.657,-999.9,9,-9.9,9,28.53,2,35.126,2
Kaiyo,9511,277,1996,1,7,0,0,2.785,173.763,1987.4,2,-9.9,9,28.55,2,35.191,2
Kaiyo,9511,278,1996,1,7,1,0,2.654,173.865,1987.9,2,-9.9,9,28.57,2,35.198,2
Kaiyo,9511,279,1996,1,7,2,0,2.522,173.972,1984.6,3,-9.9,9,28.64,2,35.21,2
Kaiyo,9511,280,1996,1,7,3,0,2.388,174.077,1985.4,3,-9.9,9,28.69,2,35.21,2
Kaiyo,9511,281,1996,1,7,4,0,2.256,174.185,1987.6,3,-9.9,9,28.67,2,35.212,2
Kaiyo,9511,282,1996,1,7,5,0,2.123,174.293,1990.3,2,-9.9,9,28.58,2,35.193,2
Kaiyo,9511,283,1996,1,7,6,0,1.993,174.4,1992.8,2,-9.9,9,28.46,2,35.176,2
Kaiyo,9511,284,1996,1,7,7,0,1.862,174.508,1991.5,2,-9.9,9,28.3,2,35.168,2
Kaiyo,9511,285,1996,1,7,8,0,1.726,174.618,1989.4,3,-9.9,9,28.24,2,35.164,2
Kaiyo,9511,286,1996,1,7,9,0,1.592,174.723,1993.9,2,-9.9,9,28.18,2,35.167,2
Kaiyo,9511,287,1996,1,7,10,0,1.459,174.829,1993.5,2,-9.9,9,28.2,2,35.187,2
Kaiyo,9511,288,1996,1,7,11,0,1.326,174.939,1988.6,3,-9.9,9,28.17,2,35.196,2
Kaiyo,9511,289,1996,1,7,12,0,1.189,175.043,-999.9,9,-9.9,9,28.14,2,35.2,2
Kaiyo,9511,290,1996,1,7,13,0,1.062,175.148,1988.9,3,-9.9,9,28.15,2,35.211,2
Kaiyo,9511,291,1996,1,7,14,0,0.935,175.255,1993.3,2,-9.9,9,28.13,2,35.211,2
Kaiyo,9511,292,1996,1,7,15,0,0.805,175.359,1990.1,2,-9.9,9,28.14,2,35.195,2
Kaiyo,9511,293,1996,1,7,16,0,0.67,175.462,1984.1,4,-9.9,9,28.09,2,35.199,2
Kaiyo,9511,294,1996,1,7,17,0,0.532,175.562,1990.6,3,-9.9,9,28.09,2,35.206,2
Kaiyo,9511,295,1996,1,7,18,0,0.397,175.666,2001.1,2,-9.9,9,27.99,2,35.235,2
Kaiyo,9511,296,1996,1,7,19,0,0.264,175.778,1995.8,2,-9.9,9,27.97,2,35.251,2
Kaiyo,9511,297,1996,1,7,20,0,0.132,175.895,1993.7,4,-9.9,9,27.93,2,35.255,2
Kaiyo,9511,298,1996,1,7,21,0,0.003,175.997,2002.6,2,-9.9,9,28,2,35.261,2
Kaiyo,9511,299,1996,1,7,22,0,0,176.006,1996.7,2,-9.9,9,28.06,2,35.276,2
Kaiyo,9511,300,1996,1,7,23,0,0.001,176.001,-999.9,9,-9.9,9,28.11,2,35.281,2
Kaiyo,9511,301,1996,1,8,0,0,0.005,175.996,-999.9,9,-9.9,9,28.13,2,35.294,2
Kaiyo,9511,302,1996,1,8,1,0,0.002,176.174,1993.9,3,-9.9,9,28.31,2,35.299,2
Kaiyo,9511,303,1996,1,8,2,0,-0.001,176.364,1994.2,3,-9.9,9,28.44,2,35.33,2
Kaiyo,9511,304,1996,1,8,3,0,0.002,176.553,1994,3,-9.9,9,28.47,2,35.351,2
Kaiyo,9511,305,1996,1,8,4,0,0.003,176.741,1996.3,2,-9.9,9,28.48,2,35.359,2
Kaiyo,9511,306,1996,1,8,5,0,-0.001,176.928,1997.7,2,-9.9,9,28.51,2,35.371,2
Kaiyo,9511,307,1996,1,8,6,0,-0.007,177.118,1994,3,-9.9,9,28.37,2,35.36,2
Kaiyo,9511,308,1996,1,8,7,0,-0.007,177.314,1996.4,3,-9.9,9,28.17,2,35.355,2
Kaiyo,9511,309,1996,1,8,8,0,-0.009,177.508,2003.4,2,-9.9,9,28.07,2,35.346,2
Kaiyo,9511,310,1996,1,8,9,0,-0.005,177.701,2004.6,2,-9.9,9,27.98,2,35.345,2
Kaiyo,9511,311,1996,1,8,10,0,-0.002,177.898,-999.9,9,-9.9,9,27.9,2,35.338,2
Kaiyo,9511,312,1996,1,8,11,0,-0.002,178.091,1999.7,3,-9.9,9,27.84,2,35.344,2
Kaiyo,9511,313,1996,1,8,12,0,-0.002,178.285,2002.8,3,-9.9,9,27.77,2,35.331,2
Kaiyo,9511,314,1996,1,8,13,0,-0.005,178.477,2006.1,2,-9.9,9,27.72,2,35.323,2
Kaiyo,9511,315,1996,1,8,14,0,-0.002,178.668,2007,2,-9.9,9,27.66,2,35.317,2
Kaiyo,9511,316,1996,1,8,15,0,-0.001,178.86,2010.7,2,-9.9,9,27.63,2,35.332,2
Kaiyo,9511,317,1996,1,8,16,0,-0.001,179.05,2009,2,-9.9,9,27.6,2,35.342,2
Kaiyo,9511,318,1996,1,8,17,0,-0.001,179.243,2005.7,2,-9.9,9,27.56,2,35.322,2
Kaiyo,9511,319,1996,1,8,18,0,0,179.431,2007,2,-9.9,9,27.54,2,35.304,2
Kaiyo,9511,320,1996,1,8,19,0,-0.001,179.617,2010.7,2,-9.9,9,27.57,2,35.303,2
Kaiyo,9511,321,1996,1,8,20,0,-0.004,179.8,2013.1,2,-9.9,9,27.54,2,35.31,2
Kaiyo,9511,322,1996,1,8,21,0,-0.001,179.945,2013.7,2,-9.9,9,27.56,2,35.297,2